Madison, SD

9:29 AM CDT on April 23, 2018 (GMT -0500)
Madison Municipal

Weather History for KMDS - January, 2014

Change the Weather History Date:

Monday, January 13, 2014

  Actual Average Record
Temperature  
Mean Temperature 29 °F -  
Max Temperature 37 °F 20 °F 37 °F (2014)
Min Temperature 21 °F 1 °F -11 °F (2015)
Degree Days  
Heating Degree Days 36    
Moisture  
Dew Point 29 °F    
Average Humidity 98    
Maximum Humidity 100    
Minimum Humidity 87    
Precipitation  
Precipitation 0.00 in - - ()
Sea Level Pressure  
Sea Level Pressure 29.63 in    
Wind  
Wind Speed 15 mph (West)    
Max Wind Speed 23 mph    
Max Gust Speed 31 mph    
Visibility 10 miles    
Events Rain    
Averages and records for this station are not official NWS values.
T = Trace of Precipitation, MM = Missing Value Source: NWS Daily Summary

Daily Weather History Graph

Daily Weather History Graph

Search for Another Location

Airport or City:

Astronomy

Jan. 13, 2014 Rise Set
Actual Time 8:00 AM CST 5:13 PM CST
Civil Twilight 7:28 AM CST 5:45 PM CST
Nautical Twilight 6:52 AM CST 6:21 PM CST
Astronomical Twilight 6:18 AM CST 6:56 PM CST
Moon 3:30 PM CST (1/13) 5:50 AM CST (1/13)
Length of Visible Light 10h 17m
Length of Day
9h 12m
Waxing Gibbous, 95% of the Moon is Illuminated
Jan 13
Waxing Gibbous
Jan 15
Full
Jan 23
Last Quarter
Jan 30
New
Feb 6
First Quarter

Hourly Weather History & Observations

Time (CST) Temp. Windchill Dew Point Humidity Pressure Visibility Wind Dir Wind Speed Gust Speed Precip Events Conditions
12:05 AM 32.0 °F 20.8 °F 32.0 °F 100% 29.60 in 10.0 mi WNW 17.3 mph - N/A   Clear
12:25 AM 32.0 °F 20.8 °F 32.0 °F 100% 29.61 in 10.0 mi NW 17.3 mph 24.2 mph N/A   Clear
12:45 AM 32.0 °F 20.5 °F 32.0 °F 100% 29.62 in 10.0 mi NW 18.4 mph 21.9 mph N/A   Clear
1:05 AM 30.2 °F 17.8 °F 30.2 °F 100% 29.63 in 10.0 mi NW 19.6 mph 24.2 mph N/A   Scattered Clouds
1:25 AM 32.0 °F 19.2 °F 32.0 °F 100% 29.64 in 10.0 mi NW 23.0 mph 31.1 mph N/A   Overcast
1:45 AM 32.0 °F 20.1 °F 32.0 °F 100% 29.65 in 10.0 mi NW 19.6 mph 28.8 mph N/A   Overcast
2:05 AM 30.2 °F 18.9 °F 30.2 °F 100% 29.66 in 10.0 mi NW 16.1 mph 24.2 mph N/A   Overcast
2:25 AM 30.2 °F 18.1 °F 30.2 °F 100% 29.67 in 10.0 mi NW 18.4 mph - N/A   Overcast
2:45 AM 30.2 °F 17.4 °F 30.2 °F 100% 29.68 in 10.0 mi NNW 20.7 mph 27.6 mph N/A   Overcast
3:05 AM 28.4 °F 15.4 °F 28.4 °F 100% 29.69 in 10.0 mi NNW 19.6 mph 31.1 mph N/A   Overcast
3:25 AM 26.6 °F 12.7 °F 26.6 °F 100% 29.70 in 10.0 mi NNW 20.7 mph 27.6 mph N/A   Mostly Cloudy
3:45 AM 26.6 °F 15.7 °F 26.6 °F 100% 29.70 in 10.0 mi NNW 12.7 mph 24.2 mph N/A   Mostly Cloudy
4:05 AM 24.8 °F 14.0 °F 24.8 °F 100% 29.71 in 10.0 mi NW 11.5 mph - N/A   Partly Cloudy
4:25 AM 24.8 °F 14.0 °F 24.8 °F 100% 29.71 in 10.0 mi WNW 11.5 mph - N/A   Clear
4:45 AM 23.0 °F 11.7 °F 23.0 °F 100% 29.71 in 10.0 mi WNW 11.5 mph - N/A   Clear
5:05 AM 23.0 °F 11.1 °F 23.0 °F 100% 29.71 in 10.0 mi WNW 12.7 mph - N/A   Clear
5:25 AM 23.0 °F - 23.0 °F 100% 29.71 in 10.0 mi North - - N/A   Clear
5:45 AM 23.0 °F 10.6 °F 23.0 °F 100% 29.71 in 10.0 mi WNW 13.8 mph - N/A   Clear
6:05 AM 23.0 °F 11.1 °F 23.0 °F 100% 29.71 in 10.0 mi WNW 12.7 mph - N/A   Clear
6:25 AM 21.2 °F 9.5 °F 21.2 °F 100% 29.71 in 10.0 mi WNW 11.5 mph - N/A   Clear
6:45 AM 21.2 °F 10.1 °F 21.2 °F 100% 29.72 in 10.0 mi West 10.4 mph - N/A   Clear
7:05 AM 23.0 °F 11.1 °F 23.0 °F 100% 29.72 in 10.0 mi WNW 12.7 mph - N/A   Clear
7:25 AM 23.0 °F 10.6 °F 23.0 °F 100% 29.72 in 10.0 mi WNW 13.8 mph - N/A   Clear
7:45 AM 21.2 °F 8.9 °F 21.2 °F 100% 29.72 in 10.0 mi WNW 12.7 mph - N/A   Clear
8:05 AM 21.2 °F 10.1 °F 21.2 °F 100% 29.72 in 10.0 mi West 10.4 mph - N/A   Clear
8:25 AM 23.0 °F 12.4 °F 23.0 °F 100% 29.71 in 10.0 mi West 10.4 mph - N/A   Clear
8:45 AM 23.0 °F 13.9 °F 23.0 °F 100% 29.72 in 10.0 mi West 8.1 mph - N/A   Clear
9:05 AM 23.0 °F 13.9 °F 23.0 °F 100% 29.72 in 10.0 mi West 8.1 mph - N/A   Clear
9:25 AM 23.0 °F 13.1 °F 23.0 °F 100% 29.73 in 10.0 mi West 9.2 mph - N/A   Clear
9:45 AM 24.8 °F 14.6 °F 24.8 °F 100% 29.72 in 10.0 mi West 10.4 mph - N/A   Clear
10:05 AM 24.8 °F 16.1 °F 24.8 °F 100% 29.72 in 10.0 mi West 8.1 mph - N/A   Clear
10:25 AM 24.8 °F 16.9 °F 24.8 °F 100% 29.72 in 10.0 mi WSW 6.9 mph - N/A   Clear
10:45 AM 26.6 °F 19.1 °F 26.6 °F 100% 29.72 in 10.0 mi WSW 6.9 mph - N/A   Clear
11:05 AM 26.6 °F 18.2 °F 26.6 °F 100% 29.72 in 10.0 mi WSW 8.1 mph - N/A   Clear
11:25 AM 26.6 °F 16.2 °F 26.6 °F 100% 29.71 in 10.0 mi WSW 11.5 mph - N/A   Clear
11:45 AM 28.4 °F 20.4 °F 26.6 °F 93% 29.70 in 10.0 mi WSW 8.1 mph - N/A   Clear
12:05 PM 28.4 °F 19.7 °F 26.6 °F 93% 29.69 in 10.0 mi SW 9.2 mph - N/A   Clear
12:25 PM 30.2 °F 21.3 °F 28.4 °F 93% 29.66 in 10.0 mi SW 10.4 mph - N/A   Clear
12:45 PM 32.0 °F 23.0 °F 30.2 °F 93% 29.65 in 10.0 mi SSW 11.5 mph - N/A   Partly Cloudy
1:05 PM 32.0 °F 23.6 °F 30.2 °F 93% 29.63 in 10.0 mi SSW 10.4 mph - N/A   Clear
1:25 PM 32.0 °F 23.0 °F 30.2 °F 93% 29.61 in 10.0 mi SSW 11.5 mph - N/A   Clear
1:45 PM 32.0 °F 22.5 °F 32.0 °F 100% 29.62 in 10.0 mi SSW 12.7 mph - N/A   Clear
2:05 PM 33.8 °F 23.9 °F 32.0 °F 93% 29.61 in 10.0 mi SW 15.0 mph - N/A   Clear
2:25 PM 32.0 °F 22.1 °F 32.0 °F 100% 29.61 in 10.0 mi SSW 13.8 mph - N/A   Scattered Clouds
2:45 PM 32.0 °F 22.1 °F 32.0 °F 100% 29.61 in 10.0 mi SW 13.8 mph - N/A   Overcast
3:05 PM 32.0 °F 23.0 °F 32.0 °F 100% 29.61 in 10.0 mi SSW 11.5 mph - N/A   Overcast
3:25 PM 33.8 °F 24.3 °F 32.0 °F 93% 29.61 in 10.0 mi SSW 13.8 mph - N/A   Scattered Clouds
3:45 PM 33.8 °F 24.3 °F 32.0 °F 93% 29.60 in 10.0 mi SSW 13.8 mph - N/A   Partly Cloudy
4:05 PM 33.8 °F 24.8 °F 32.0 °F 93% 29.59 in 10.0 mi SW 12.7 mph - N/A   Clear
4:25 PM 33.8 °F 23.9 °F 32.0 °F 93% 29.59 in 10.0 mi SW 15.0 mph - N/A   Clear
4:45 PM 33.8 °F 23.9 °F 32.0 °F 93% 29.58 in 10.0 mi SSW 15.0 mph - N/A   Clear
5:05 PM 32.0 °F 22.1 °F 32.0 °F 100% 29.57 in 10.0 mi SSW 13.8 mph - N/A   Clear
5:25 PM 32.0 °F 22.1 °F 32.0 °F 100% 29.56 in 10.0 mi SW 13.8 mph - N/A   Clear
5:45 PM 32.0 °F 23.0 °F 32.0 °F 100% 29.56 in 10.0 mi SW 11.5 mph - N/A   Clear
6:05 PM 33.8 °F 25.3 °F 32.0 °F 93% 29.56 in 10.0 mi SW 11.5 mph - N/A   Clear
6:25 PM 33.8 °F 24.8 °F 32.0 °F 93% 29.55 in 10.0 mi SW 12.7 mph 18.4 mph N/A   Clear
6:45 PM 35.6 °F 27.5 °F 32.0 °F 87% 29.54 in 10.0 mi SW 11.5 mph - N/A   Clear
7:05 PM 33.8 °F 24.3 °F 32.0 °F 93% 29.53 in 10.0 mi SW 13.8 mph - N/A   Clear
7:25 PM 33.8 °F 25.3 °F 32.0 °F 93% 29.53 in 10.0 mi SW 11.5 mph - N/A   Clear
7:45 PM 33.8 °F 23.9 °F 32.0 °F 93% 29.52 in 10.0 mi WSW 15.0 mph - N/A   Scattered Clouds
8:05 PM 33.8 °F 23.9 °F 32.0 °F 93% 29.51 in 10.0 mi SW 15.0 mph - N/A   Mostly Cloudy
8:25 PM 33.8 °F 24.8 °F 32.0 °F 93% 29.50 in 10.0 mi WSW 12.7 mph - N/A   Partly Cloudy
8:45 PM 35.6 °F 26.6 °F 33.8 °F 93% 29.50 in 10.0 mi WSW 13.8 mph - N/A   Mostly Cloudy
9:05 PM 35.6 °F 27.5 °F 35.6 °F 100% 29.49 in 10.0 mi SW 11.5 mph 18.4 mph N/A   Overcast
9:25 PM 33.8 °F 24.8 °F 33.8 °F 100% 29.49 in 10.0 mi WSW 12.7 mph - N/A   Overcast
9:45 PM 35.6 °F 27.5 °F 35.6 °F 100% 29.48 in 10.0 mi WSW 11.5 mph - N/A Rain Light Rain
10:05 PM 35.6 °F 28.0 °F 35.6 °F 100% 29.48 in 10.0 mi WSW 10.4 mph - N/A Rain Light Rain
10:25 PM 35.6 °F 28.0 °F 35.6 °F 100% 29.48 in 10.0 mi WSW 10.4 mph - N/A   Overcast
10:45 PM 35.6 °F 28.6 °F 35.6 °F 100% 29.47 in 10.0 mi WSW 9.2 mph - N/A   Overcast
11:05 PM 37.4 °F 28.5 °F 37.4 °F 100% 29.48 in 10.0 mi West 15.0 mph 20.7 mph N/A   Overcast
11:25 PM 37.4 °F 26.4 °F 37.4 °F 100% 29.48 in 10.0 mi WNW 23.0 mph 29.9 mph N/A   Mostly Cloudy
11:45 PM 37.4 °F 26.6 °F 37.4 °F 100% 29.49 in 10.0 mi NW 21.9 mph 28.8 mph N/A   Overcast